Regional Weather Roundup
Issued by NWS

Home | Current Version | Previous Version | Text Only | Print | Product List | Glossary Off
Versions: 1 2 3 4 5 6 7 8 9 10 11 12 13 14 15 16 17 18 19 20 21 22 23 24 25 26 27 28 29 30 31 32 33 34 35 36 37 38 39 40 41 42 43 44 45 46 47 48 49 50

000
ASUS45 KPSR 301710
RWRAZ

ARIZONA HOURLY REGIONAL WEATHER ROUNDUP
NATIONAL WEATHER SERVICE PHOENIX AZ
1000 AM MST SAT APR 30 2016

NOTE: FAIR INDICATES FEW OR NO CLOUDS BELOW 12,000 FEET WITH NO
SIGNIFICANT WEATHER AND/OR OBSTRUCTIONS TO VISIBILITY.

AZZ001>003-036-301800-
NORTHWEST ARIZONA

CITY           SKY/WX    TMP DP  RH WIND       PRES   REMARKS
BULLHEAD CITY  CLOUDY    64  45  48 N22G30    29.74R
KINGMAN        LGT RAIN  56  42  59 S5        29.75R
$$

AZZ004>008-015-016-018-301800-
NORTH CENTRAL ARIZONA

CITY           SKY/WX    TMP DP  RH WIND       PRES   REMARKS
GRAND CANYON   LGT RAIN  38  35  89 NW3       29.89S FOG
WILLIAMS       LGT RAIN  39  36  87 SE12      29.94S WCI  32
PRESCOTT       CLOUDY    53  36  52 SE15G21   29.81F
FLAGSTAFF      CLOUDY    43  38  82 S8        29.88F
PAYSON         CLOUDY    54  37  54 VRB3      29.88S
PAGE           LGT RAIN  49  44  83 W7        29.87R
$$

AZZ009>014-017-301800-
NORTHEAST ARIZONA

CITY           SKY/WX    TMP DP  RH WIND       PRES   REMARKS
WINSLOW        CLOUDY    58  34  40 W8        29.84F
SAINT JOHNS    PTSUNNY   55  35  47 S8        29.86F
SHOW LOW       MOSUNNY   52  32  46 S15G21    29.90F
$$

AZZ023-301800-
GREATER PHOENIX AREA

CITY           SKY/WX    TMP DP  RH WIND       PRES   REMARKS
PHOENIX        PTSUNNY   75  35  23 SE13G18   29.70F
BUCKEYE        PTSUNNY   73  36  25 E7        29.71F
GLENDALE       PTSUNNY   73  37  27 E8G17     29.72F
LUKE AFB       MOSUNNY   74  39  27 SE10      29.69F
DEER VALLEY    PTSUNNY   72  37  28 SE17G23   29.71F
SCOTTSDALE     PTSUNNY   73  35  25 S9G17     29.73F
MESA-FALCON    MOSUNNY  N/A N/A N/A S17       29.70F
MESA-GATEWAY   MOSUNNY   73  32  21 SE12G18   29.74F
CHANDLER       SUNNY     75  32  20 SE16      29.72F
$$

AZZ027-028-301800-
SOUTHWEST MARICOPA COUNTY AND PINAL COUNTY

CITY           SKY/WX    TMP DP  RH WIND       PRES   REMARKS
CASA GRANDE    MOSUNNY   75  34  22 S10       29.75F
GILA BEND      FAIR      76  33  21 CALM      29.67F
$$

AZZ503-504-507>509-301800-
SOUTHEAST ARIZONA

CITY           SKY/WX    TMP DP  RH WIND       PRES   REMARKS
TUCSON         SUNNY     72  29  20 S12G22    29.81F
DAVIS-MONTHAN  SUNNY     69  31  24 SE6       29.79F
RYAN FIELD     SUNNY     72  32  23 E7        29.79F
NOGALES        SUNNY     68  31  25 S17       29.84F
SIERRA VISTA   SUNNY     63  27  25 VRB5      29.87F
DOUGLAS        SUNNY     65  29  25 VRB5G20   29.86F
SAFFORD        MOSUNNY   68  32  26 MISG      29.80F
$$

AZZ020-021-025-026-031-301800-
SOUTHWEST ARIZONA

CITY           SKY/WX    TMP DP  RH WIND       PRES   REMARKS
YUMA           SUNNY     72  43  35 W12       29.70F
$$

CAZ031-033-041-043-047-048-061-301800-
SOUTHERN CALIFORNIA

CITY           SKY/WX    TMP DP  RH WIND       PRES   REMARKS
DOWNTOWN L.A.  MOSUNNY   66  50  56 CALM      29.82F
L.A. AIRPORT   PTSUNNY   60  50  69 SW6       29.84F
SAN DIEGO      LGT RAIN  58  51  78 SW12      29.85F
BURBANK        MOSUNNY   61  47  59 SE5       29.81F
ONTARIO        PTSUNNY   56  51  84 W3        29.83F
RIVERSIDE      CLOUDY    57  52  83 CALM      29.84F
PALM SPRINGS   PTSUNNY   70  43  37 NW14G29   29.73R
EL CENTRO NAS  SUNNY     71  40  32 W30       29.73F
IMPERIAL       SUNNY     72  39  30 W23G33    29.70S
BLYTHE         CLOUDY    69  47  45 CALM      29.69S
NEEDLES        LGT RAIN  65  46  50 N17       29.71S
$$

NVZ020-UTZ003-301800-
SOUTHERN NEVADA-UTAH

CITY           SKY/WX    TMP DP  RH WIND       PRES   REMARKS
LAS VEGAS      LGT RAIN  50  47  89 CALM      29.75S FOG
SALT LAKE CITY MOSUNNY   56  31  38 CALM      29.94S
$$

NMZ009-TXZ055-301800-
NEW MEXICO-WEST TEXAS

CITY           SKY/WX    TMP DP  RH WIND       PRES   REMARKS
ALBUQUERQUE    PTSUNNY   56  36  47 VRB5      29.88F
EL PASO        MOSUNNY   68  29  23 VRB7      29.87F
$$


........................KEY........................
SKY/WX - SKY CONDITION/WEATHER
TMP    - TEMPERATURE IN FAHRENHEIT
DP     - DEW POINT IN FAHRENHEIT
RH     - RELATIVE HUMIDITY IN PERCENT
WIND   - DIRECTION AND SPEED IN MILES PER HOUR (MPH)
VRB    - VARIABLE WIND DIRECTION
PRES   - MEAN SEA LEVEL PRESSURE IN INCHES OF MERCURY
         F - FALLING PRESSURE   R - RISING PRESSURE
         S - STEADY PRESSURE
VSB    - VISIBILITY IN MILES
HX     - HEAT INDEX IN FAHRENHEIT
WCI    - WIND CHILL INDEX IN FAHRENHEIT
TC     - TEMPERATURE IN CELSIUS WHICH IS ALSO KNOWN AS
         TEMPERATURE IN CENTIGRADE
AFB    - AIR FORCE BASE
         LUKE AFB IS LUKE AIR FORCE BASE
         DAVIS-MONTHAN IS DAVIS-MONTHAN AIR FORCE BASE
NAS    - NAVAL AIR STATION
         EL CENTRO NAS IS EL CENTRO NAVAL AIR STATION
N/A    - NOT AVAILABLE




USA.gov is the U.S. government's official web portal to all federal, state and local government web resources and services.